Belen, NM

6:18 PM MDT on June 24, 2017 (GMT -0600)
Belen

Weather History for KE80 - October, 2012

Change the Weather History Date:

Wednesday, October 17, 2012

  Actual Average (KABQ) Record (KABQ)
Temperature  
Mean Temperature 68 °F -  
Max Temperature 80 °F 69 °F 85 °F (1991)
Min Temperature 55 °F 41 °F 26 °F (1980)
Cooling Degree Days 2    
Growing Degree Days 18 (Base 50)    
Moisture  
Dew Point 22 °F    
Average Humidity 19    
Maximum Humidity 34    
Minimum Humidity 8    
Precipitation  
Precipitation 0.00 in - - ()
Sea Level Pressure  
Sea Level Pressure 29.98 in    
Wind  
Wind Speed 11 mph (NW)    
Max Wind Speed 24 mph    
Max Gust Speed 30 mph    
Visibility 10 miles    
Events      
Averages and records for this station are not official NWS values.
T = Trace of Precipitation, MM = Missing Value Source: NWS Daily Summary

Daily Weather History Graph

Daily Weather History Graph

Search for Another Location

Airport or City:

Trip Planner

Search our weather history database for the weather conditions in past years. The results will help you decide how hot, cold, wet, or windy it might be!

Date:

Astronomy

Oct. 17, 2012 Rise Set
Actual Time 7:15 AM MDT 6:29 PM MDT
Civil Twilight 6:49 AM MDT 6:54 PM MDT
Nautical Twilight 6:20 AM MDT 7:24 PM MDT
Astronomical Twilight 5:51 AM MDT 7:53 PM MDT
Moon 9:45 AM MDT (10/17) 8:16 PM MDT (10/17)
Length of Visible Light 12h 05m
Length of Day
11h 14m
Waxing Crescent, 7% of the Moon is Illuminated
Oct 17
Waxing Crescent
Oct 21
First Quarter
Oct 29
Full
Nov 6
Last Quarter
Nov 13
New

Hourly Weather History & Observations

Time (MDT) Temp. Dew Point Humidity Pressure Visibility Wind Dir Wind Speed Gust Speed Precip Events Conditions
12:15 AM 64.6 °F 18.1 °F 17% 29.91 in 10.0 mi SSE 4.6 mph - N/A   Clear
12:35 AM 67.1 °F 21.4 °F 18% 29.91 in 10.0 mi West 24.2 mph 29.9 mph N/A   Clear
12:55 AM 69.1 °F 23.2 °F 18% 29.91 in 10.0 mi West 15.0 mph 25.3 mph N/A   Clear
1:15 AM 65.8 °F 23.9 °F 20% 29.92 in 10.0 mi West 8.1 mph - N/A   Clear
1:35 AM 69.3 °F 23.4 °F 18% 29.91 in 10.0 mi WNW 23.0 mph 29.9 mph N/A   Clear
1:55 AM 68.0 °F 24.4 °F 19% 29.91 in 10.0 mi WNW 18.4 mph - N/A   Clear
2:15 AM 67.6 °F 25.0 °F 20% 29.91 in 10.0 mi NW 13.8 mph 18.4 mph N/A   Clear
2:35 AM 64.6 °F 24.8 °F 22% 29.91 in 10.0 mi NW 11.5 mph - N/A   Clear
2:55 AM 65.1 °F 26.2 °F 23% 29.91 in 10.0 mi WNW 16.1 mph - N/A   Clear
3:15 AM 64.4 °F 27.0 °F 24% 29.91 in 10.0 mi West 12.7 mph 20.7 mph N/A   Clear
4:15 AM 63.0 °F 27.0 °F 26% 29.91 in 10.0 mi WSW 10.4 mph - N/A   Clear
4:35 AM 62.1 °F 26.4 °F 26% 29.91 in 10.0 mi WNW 8.1 mph - N/A   Clear
4:55 AM 65.3 °F 26.1 °F 23% 29.92 in 10.0 mi West 6.9 mph - N/A   Clear
5:15 AM 66.0 °F 26.2 °F 22% 29.93 in 10.0 mi West 9.2 mph - N/A   Clear
5:35 AM 59.9 °F 26.1 °F 27% 29.94 in 10.0 mi WNW 5.8 mph - N/A   Clear
5:55 AM 58.6 °F 25.9 °F 29% 29.94 in 10.0 mi WNW 4.6 mph - N/A   Clear
6:15 AM 57.0 °F 26.4 °F 31% 29.95 in 10.0 mi West 9.2 mph - N/A   Clear
6:35 AM 59.7 °F 27.7 °F 30% 29.96 in 10.0 mi West 9.2 mph - N/A   Clear
6:55 AM 58.3 °F 27.7 °F 31% 29.97 in 10.0 mi West 8.1 mph - N/A   Clear
7:15 AM 60.4 °F 28.4 °F 30% 29.97 in 10.0 mi West 10.4 mph - N/A   Clear
7:35 AM 57.6 °F 28.9 °F 34% 29.97 in 10.0 mi WSW 10.4 mph - N/A   Clear
7:55 AM 60.8 °F 29.7 °F 31% 29.99 in 10.0 mi WSW 8.1 mph - N/A   Clear
8:15 AM 62.2 °F 30.2 °F 30% 30.00 in 10.0 mi West 8.1 mph - N/A   Clear
8:35 AM 64.0 °F 30.6 °F 28% 30.02 in 10.0 mi NW 6.9 mph - N/A   Clear
8:55 AM 66.0 °F 30.7 °F 27% 30.02 in 10.0 mi NW 8.1 mph - N/A   Clear
9:15 AM 67.1 °F 31.1 °F 26% 30.03 in 10.0 mi NW 11.5 mph - N/A   Clear
9:35 AM 68.0 °F 32.0 °F 26% 30.04 in 10.0 mi NW 10.4 mph 17.3 mph N/A   Clear
9:55 AM 68.9 °F 33.4 °F 27% 30.04 in 10.0 mi NW 12.7 mph 18.4 mph N/A   Clear
10:35 AM 70.7 °F 35.6 °F 28% 30.03 in 10.0 mi WNW 5.8 mph - N/A   Clear
10:55 AM 71.2 °F 36.3 °F 28% 30.03 in 10.0 mi NW 12.7 mph 18.4 mph N/A   Clear
11:15 AM 72.0 °F 36.0 °F 27% 30.03 in 10.0 mi West 10.4 mph - N/A   Clear
11:35 AM 73.8 °F 35.2 °F 25% 30.03 in 10.0 mi WNW 10.4 mph - N/A   Clear
11:55 AM 73.6 °F 34.7 °F 24% 30.03 in 10.0 mi NW 11.5 mph 17.3 mph N/A   Clear
12:15 PM 74.5 °F 34.5 °F 23% 30.02 in 10.0 mi North 4.6 mph - N/A   Clear
12:35 PM 75.6 °F 34.3 °F 22% 30.02 in 10.0 mi NNW 12.7 mph 16.1 mph N/A   Clear
12:55 PM 76.1 °F 33.3 °F 21% 30.01 in 10.0 mi NNW 5.8 mph - N/A   Clear
1:15 PM 77.7 °F 32.2 °F 19% 29.99 in 10.0 mi NNW 9.2 mph - N/A   Clear
1:35 PM 77.7 °F 32.0 °F 19% 29.98 in 10.0 mi NW 8.1 mph - N/A   Clear
1:55 PM 79.0 °F 29.1 °F 16% 29.98 in 10.0 mi NNW 17.3 mph 27.6 mph N/A   Clear
2:15 PM 79.0 °F 26.4 °F 14% 29.97 in 10.0 mi NNW 13.8 mph 21.9 mph N/A   Clear
2:35 PM 79.5 °F 25.0 °F 13% 29.97 in 10.0 mi WNW 9.2 mph 19.6 mph N/A   Clear
2:55 PM 79.3 °F 22.8 °F 12% 29.95 in 10.0 mi NW 15.0 mph 26.5 mph N/A   Clear
3:15 PM 80.1 °F 22.5 °F 12% 29.95 in 10.0 mi NW 15.0 mph 24.2 mph N/A   Clear
3:35 PM 80.1 °F 22.3 °F 12% 29.95 in 10.0 mi WNW 12.7 mph 25.3 mph N/A   Clear
3:55 PM 80.2 °F 19.8 °F 11% 29.95 in 10.0 mi WNW 12.7 mph 21.9 mph N/A   Clear
4:15 PM 79.7 °F 15.6 °F 9% 29.95 in 10.0 mi NNW 11.5 mph 23.0 mph N/A   Clear
4:35 PM 79.3 °F 11.1 °F 8% 29.95 in 10.0 mi NW 17.3 mph - N/A   Clear
4:55 PM 78.6 °F 11.1 °F 8% 29.95 in 10.0 mi NNW 16.1 mph 23.0 mph N/A   Clear
5:15 PM 77.9 °F 11.3 °F 8% 29.95 in 10.0 mi North 11.5 mph 19.6 mph N/A   Clear
5:35 PM 77.2 °F 12.7 °F 9% 29.95 in 10.0 mi NNW 11.5 mph 17.3 mph N/A   Clear
5:55 PM 75.7 °F 10.8 °F 8% 29.95 in 10.0 mi North 15.0 mph 18.4 mph N/A   Clear
6:15 PM 73.8 °F 10.2 °F 9% 29.96 in 10.0 mi North 12.7 mph - N/A   Clear
6:35 PM 71.1 °F 9.9 °F 9% 29.97 in 10.0 mi North 10.4 mph - N/A   Clear
6:55 PM 69.1 °F 8.6 °F 10% 29.97 in 10.0 mi North 10.4 mph - N/A   Clear
7:15 PM 68.4 °F 8.1 °F 10% 29.98 in 10.0 mi North 10.4 mph - N/A   Clear
7:35 PM 66.2 °F 8.1 °F 10% 29.99 in 10.0 mi North 11.5 mph - N/A   Clear
7:55 PM 66.9 °F 8.2 °F 10% 30.00 in 10.0 mi NNW 12.7 mph - N/A   Clear
8:35 PM 64.2 °F 8.1 °F 11% 30.01 in 10.0 mi NNW 13.8 mph - N/A   Clear
8:55 PM 64.2 °F 8.2 °F 11% 30.03 in 10.0 mi NNW 11.5 mph - N/A   Clear
9:15 PM 60.8 °F 7.5 °F 12% 30.04 in 10.0 mi NNW 9.2 mph - N/A   Clear
9:55 PM 59.5 °F 5.9 °F 12% 30.06 in 10.0 mi NW 11.5 mph - N/A   Clear
10:15 PM 60.1 °F 5.5 °F 11% 30.07 in 10.0 mi NW 12.7 mph - N/A   Clear
10:35 PM 59.0 °F 4.8 °F 11% 30.07 in 10.0 mi WNW 9.2 mph - N/A   Clear
10:55 PM 56.3 °F 3.9 °F 12% 30.08 in 10.0 mi WNW 8.1 mph - N/A   Clear
11:15 PM 55.9 °F 3.7 °F 12% 30.08 in 10.0 mi WNW 6.9 mph - N/A   Clear
11:35 PM 57.7 °F 2.5 °F 11% 30.08 in 10.0 mi NNW 10.4 mph - N/A   Clear
11:55 PM 55.2 °F 1.8 °F 11% 30.08 in 10.0 mi NW 10.4 mph - N/A   Clear